This is the latest recevied weather packets stored in our database for station/object OH2HCY-3. If no packets are shown the sender has not sent any weather packets the latest 10 day(s).
| Time | Temp. | Humidity | Pressure | Rain* | Wind** | Luminosity | Snow |
|---|---|---|---|---|---|---|---|
| 1787380072 | 13.89° C | 91% | 1007.3 hPa | - | - | - | - |
| 1787378957 | 13.33° C | 91% | 1007.3 hPa | - | - | - | - |
| 1787377792 | 13.33° C | 91% | 1007.4 hPa | - | - | - | - |
| 1787376764 | 12.78° C | 92% | 1007.5 hPa | - | - | - | - |
| 1787375767 | 12.78° C | 92% | 1007.6 hPa | - | - | - | - |
| 1787374622 | 12.78° C | 92% | 1007.4 hPa | - | - | - | - |
| 1787373486 | - | - | - | - | - | - | - |
| 1787373484 | 12.22° C | 92% | 1007.5 hPa | - | - | - | - |
| 1787372462 | 11.67° C | 92% | 1007.6 hPa | - | - | - | - |
| 1787371375 | 11.11° C | 92% | 1007.7 hPa | - | - | - | - |
| 1787370387 | 10.56° C | 92% | 1007.7 hPa | - | - | - | - |
| 1787369207 | 10.56° C | 92% | 1007.5 hPa | - | - | - | - |
| 1787368231 | 10° C | 91% | 1007.5 hPa | - | - | - | - |
| 1787367222 | 10° C | 91% | 1007.3 hPa | - | - | - | - |
| 1787366132 | 10° C | 91% | 1007.2 hPa | - | - | - | - |
| 1787365082 | 10.56° C | 91% | 1007.2 hPa | - | - | - | - |
| 1787364056 | 10.56° C | 92% | 1007.3 hPa | - | - | - | - |
| 1787362882 | 11.11° C | 91% | 1007.4 hPa | - | - | - | - |
| 1787361787 | 11.11° C | 91% | 1007.3 hPa | - | - | - | - |
| 1787360742 | 11.11° C | 91% | 1007.3 hPa | - | - | - | - |
| 1787359587 | 11.67° C | 91% | 1007.3 hPa | - | - | - | - |
| 1787358542 | 11.67° C | 91% | 1007.3 hPa | - | - | - | - |
| 1787357418 | 11.67° C | 91% | 1007.4 hPa | - | - | - | - |
* Rain since midnight (hover to see other rain measurements)
** Current wind speed in m/s (hover to see current wind gust speed)